Погода в Тепике

Мексика     21°30′14″N   104°53′39″W
темп.,
°C
ветер,
м/с
пор.,
м/с
влажн.,
%
обл.,
%
осадки,
мм/ч
давл.,
гПа
погр.,
м
25 июля, вс
вс2500:00+21св129990 0.8 101657
03:00+21вюв119522 0.0 101617
06:00+19вюв2197100 0.1 101634
09:00+24ссв017095 0.0 1016446
12:00+30сз21473 0.0 10141337
15:00+30зсз325024 0.0 10121660
18:00+25зсз238191 0.1 1012646
21:00+22ю009842 0.4 101456
26 июля, пн
пн2600:00+21ю009858 0.4 101512
03:00+22всв0097100 0.1 101427
06:00+21в1299100 1.8 101350
09:00+24с118884 0.0 1013265
12:00+30сз225478 0.0 10121542
15:00+26з228895 1.1 1011627
18:00+24зсз2295100 1.8 1011323
21:00+23зсз1210099 2.6 1013218
27 июля, вт
вт2700:00+22ююз1110061 3.6 101460
03:00+21всв0099100 4.8 101318
06:00+20ююз24100100 14.1 1014137
09:00+21вюв1299100 29.1 1015101
12:00+27св126499 29.1 1014651
15:00+29зсз2258100 0.0 10121373
18:00+24зсз238529 0.5 1012383
21:00+20ююв119842 0.3 101531
28 июля, ср
ср2800:00+20юв1197100 0.9 101526
03:00+20вюв1197100 1.4 101515
06:00+20в1197100 1.8 101519
09:00+23св128936 0.7 1015388
12:00+29ссз215957 0.8 10131374
15:00+27з227850 0.6 1012486
18:00+24зсз129383 1.4 1011340
21:00+22вюв0010099 3.3 101355
29 июля, чт
чт2900:00+20вюв249798 10.1 101575
03:00+18в2392100 0.3 101345
06:00+19вюв2180100 0.3 101434
09:00+26вюв125525 0.0 1013264
12:00+30ссз1242100 0.0 10121443
15:00+31зсз22469 0.0 10101605
18:00+27з227127 0.0 1010615
21:00+22ссв009946 0.4 101261